﻿測定場所 (Monitoring sites),日付 (Measurement date),時間 (Measurement time),線量率 最大値 (max) μGy/h,線量率 最小値 (min) μGy/h,線量率 平均値 (average) μGy/h,
新宿 (Shinjuku),2017-04-23,23:01～24:00,0.0387,0.0340,0.0361,
新宿 (Shinjuku),2017-04-23,22:01～23:00,0.0383,0.0339,0.0361,
新宿 (Shinjuku),2017-04-23,21:01～22:00,0.0387,0.0333,0.0360,
新宿 (Shinjuku),2017-04-23,20:01～21:00,0.0380,0.0345,0.0362,
新宿 (Shinjuku),2017-04-23,19:01～20:00,0.0385,0.0339,0.0361,
新宿 (Shinjuku),2017-04-23,18:01～19:00,0.0383,0.0345,0.0363,
新宿 (Shinjuku),2017-04-23,17:01～18:00,0.0388,0.0343,0.0360,
新宿 (Shinjuku),2017-04-23,16:01～17:00,0.0394,0.0344,0.0362,
新宿 (Shinjuku),2017-04-23,15:01～16:00,0.0405,0.0339,0.0362,
新宿 (Shinjuku),2017-04-23,14:01～15:00,0.0408,0.0343,0.0364,
新宿 (Shinjuku),2017-04-23,13:01～14:00,0.0399,0.0348,0.0364,
新宿 (Shinjuku),2017-04-23,12:01～13:00,0.0395,0.0342,0.0364,
新宿 (Shinjuku),2017-04-23,11:01～12:00,0.0401,0.0349,0.0364,
新宿 (Shinjuku),2017-04-23,10:01～11:00,0.0394,0.0344,0.0362,
新宿 (Shinjuku),2017-04-23,09:01～10:00,0.0395,0.0341,0.0363,
新宿 (Shinjuku),2017-04-23,08:01～09:00,0.0408,0.0343,0.0362,
新宿 (Shinjuku),2017-04-23,07:01～08:00,0.0392,0.0345,0.0364,
新宿 (Shinjuku),2017-04-23,06:01～07:00,0.0376,0.0339,0.0359,
新宿 (Shinjuku),2017-04-23,05:01～06:00,0.0385,0.0339,0.0361,
新宿 (Shinjuku),2017-04-23,04:01～05:00,0.0382,0.0327,0.0362,
新宿 (Shinjuku),2017-04-23,03:01～04:00,0.0384,0.0340,0.0362,
新宿 (Shinjuku),2017-04-23,02:01～03:00,0.0390,0.0344,0.0365,
新宿 (Shinjuku),2017-04-23,01:01～02:00,0.0422,0.0353,0.0383,
新宿 (Shinjuku),2017-04-23,00:01～01:00,0.0490,0.0375,0.0435,
新宿 (Shinjuku),2017-04-22,23:01～24:00,0.0564,0.0437,0.0506,
新宿 (Shinjuku),2017-04-22,22:01～23:00,0.0594,0.0520,0.0558,
新宿 (Shinjuku),2017-04-22,21:01～22:00,0.0613,0.0537,0.0567,
新宿 (Shinjuku),2017-04-22,20:01～21:00,0.0607,0.0466,0.0542,
新宿 (Shinjuku),2017-04-22,19:01～20:00,0.0505,0.0418,0.0462,
新宿 (Shinjuku),2017-04-22,18:01～19:00,0.0507,0.0430,0.0463,
新宿 (Shinjuku),2017-04-22,17:01～18:00,0.0522,0.0433,0.0481,
新宿 (Shinjuku),2017-04-22,16:01～17:00,0.0458,0.0341,0.0378,
新宿 (Shinjuku),2017-04-22,15:01～16:00,0.0394,0.0350,0.0368,
新宿 (Shinjuku),2017-04-22,14:01～15:00,0.0394,0.0346,0.0366,
新宿 (Shinjuku),2017-04-22,13:01～14:00,0.0393,0.0348,0.0368,
新宿 (Shinjuku),2017-04-22,12:01～13:00,0.0405,0.0346,0.0367,
新宿 (Shinjuku),2017-04-22,11:01～12:00,0.0396,0.0344,0.0366,
新宿 (Shinjuku),2017-04-22,10:01～11:00,0.0425,0.0348,0.0372,
新宿 (Shinjuku),2017-04-22,09:01～10:00,0.0413,0.0350,0.0371,
新宿 (Shinjuku),2017-04-22,08:01～09:00,0.0418,0.0356,0.0374,
新宿 (Shinjuku),2017-04-22,07:01～08:00,0.0408,0.0341,0.0373,
新宿 (Shinjuku),2017-04-22,06:01～07:00,0.0414,0.0353,0.0374,
新宿 (Shinjuku),2017-04-22,05:01～06:00,0.0416,0.0342,0.0370,
新宿 (Shinjuku),2017-04-22,04:01～05:00,0.0396,0.0353,0.0372,
新宿 (Shinjuku),2017-04-22,03:01～04:00,0.0409,0.0346,0.0373,
新宿 (Shinjuku),2017-04-22,02:01～03:00,0.0397,0.0355,0.0372,
新宿 (Shinjuku),2017-04-22,01:01～02:00,0.0412,0.0353,0.0373,
新宿 (Shinjuku),2017-04-22,00:01～01:00,0.0420,0.0350,0.0367,
新宿 (Shinjuku),2017-04-21,23:01～24:00,0.0398,0.0346,0.0369,
新宿 (Shinjuku),2017-04-21,22:01～23:00,0.0390,0.0346,0.0367,
新宿 (Shinjuku),2017-04-21,21:01～22:00,0.0406,0.0344,0.0368,
新宿 (Shinjuku),2017-04-21,20:01～21:00,0.0397,0.0352,0.0367,
新宿 (Shinjuku),2017-04-21,19:01～20:00,0.0404,0.0342,0.0368,
新宿 (Shinjuku),2017-04-21,18:01～19:00,0.0388,0.0334,0.0363,
新宿 (Shinjuku),2017-04-21,17:01～18:00,0.0392,0.0346,0.0367,
新宿 (Shinjuku),2017-04-21,16:01～17:00,0.0399,0.0350,0.0368,
新宿 (Shinjuku),2017-04-21,15:01～16:00,0.0405,0.0352,0.0372,
新宿 (Shinjuku),2017-04-21,14:01～15:00,0.0395,0.0346,0.0368,
新宿 (Shinjuku),2017-04-21,13:01～14:00,0.0402,0.0349,0.0367,
新宿 (Shinjuku),2017-04-21,12:01～13:00,0.0399,0.0347,0.0368,
新宿 (Shinjuku),2017-04-21,11:01～12:00,0.0412,0.0349,0.0373,
新宿 (Shinjuku),2017-04-21,10:01～11:00,0.0401,0.0345,0.0368,
新宿 (Shinjuku),2017-04-21,09:01～10:00,0.0390,0.0347,0.0366,
新宿 (Shinjuku),2017-04-21,08:01～09:00,0.0399,0.0345,0.0365,
新宿 (Shinjuku),2017-04-21,07:01～08:00,0.0388,0.0347,0.0367,
新宿 (Shinjuku),2017-04-21,06:01～07:00,0.0399,0.0348,0.0367,
新宿 (Shinjuku),2017-04-21,05:01～06:00,0.0395,0.0341,0.0365,
新宿 (Shinjuku),2017-04-21,04:01～05:00,0.0396,0.0344,0.0366,
新宿 (Shinjuku),2017-04-21,03:01～04:00,0.0413,0.0348,0.0370,
新宿 (Shinjuku),2017-04-21,02:01～03:00,0.0416,0.0345,0.0363,
新宿 (Shinjuku),2017-04-21,01:01～02:00,0.0390,0.0345,0.0362,
新宿 (Shinjuku),2017-04-21,00:01～01:00,0.0397,0.0345,0.0367,
新宿 (Shinjuku),2017-04-20,23:01～24:00,0.0392,0.0348,0.0365,
新宿 (Shinjuku),2017-04-20,22:01～23:00,0.0390,0.0343,0.0362,
新宿 (Shinjuku),2017-04-20,21:01～22:00,0.0387,0.0336,0.0364,
新宿 (Shinjuku),2017-04-20,20:01～21:00,0.0407,0.0343,0.0369,
新宿 (Shinjuku),2017-04-20,19:01～20:00,0.0402,0.0350,0.0367,
新宿 (Shinjuku),2017-04-20,18:01～19:00,0.0395,0.0347,0.0366,
新宿 (Shinjuku),2017-04-20,17:01～18:00,0.0399,0.0340,0.0363,
新宿 (Shinjuku),2017-04-20,16:01～17:00,0.0391,0.0345,0.0365,
新宿 (Shinjuku),2017-04-20,15:01～16:00,0.0404,0.0345,0.0367,
新宿 (Shinjuku),2017-04-20,14:01～15:00,0.0391,0.0348,0.0365,
新宿 (Shinjuku),2017-04-20,13:01～14:00,0.0391,0.0340,0.0365,
新宿 (Shinjuku),2017-04-20,12:01～13:00,0.0412,0.0345,0.0368,
新宿 (Shinjuku),2017-04-20,11:01～12:00,0.0413,0.0346,0.0370,
新宿 (Shinjuku),2017-04-20,10:01～11:00,0.0396,0.0349,0.0369,
新宿 (Shinjuku),2017-04-20,09:01～10:00,0.0405,0.0348,0.0369,
新宿 (Shinjuku),2017-04-20,08:01～09:00,0.0400,0.0352,0.0369,
新宿 (Shinjuku),2017-04-20,07:01～08:00,0.0394,0.0342,0.0367,
新宿 (Shinjuku),2017-04-20,06:01～07:00,0.0396,0.0352,0.0367,
新宿 (Shinjuku),2017-04-20,05:01～06:00,0.0385,0.0350,0.0366,
新宿 (Shinjuku),2017-04-20,04:01～05:00,0.0401,0.0337,0.0367,
新宿 (Shinjuku),2017-04-20,03:01～04:00,0.0402,0.0343,0.0366,
新宿 (Shinjuku),2017-04-20,02:01～03:00,0.0413,0.0344,0.0367,
新宿 (Shinjuku),2017-04-20,01:01～02:00,0.0386,0.0344,0.0364,
新宿 (Shinjuku),2017-04-20,00:01～01:00,0.0408,0.0346,0.0365,
新宿 (Shinjuku),2017-04-19,23:01～24:00,0.0397,0.0338,0.0367,
新宿 (Shinjuku),2017-04-19,22:01～23:00,0.0407,0.0345,0.0368,
新宿 (Shinjuku),2017-04-19,21:01～22:00,0.0402,0.0354,0.0368,
新宿 (Shinjuku),2017-04-19,20:01～21:00,0.0412,0.0337,0.0369,
新宿 (Shinjuku),2017-04-19,19:01～20:00,0.0397,0.0354,0.0368,
新宿 (Shinjuku),2017-04-19,18:01～19:00,0.0388,0.0345,0.0366,
新宿 (Shinjuku),2017-04-19,17:01～18:00,0.0408,0.0349,0.0369,
新宿 (Shinjuku),2017-04-19,16:01～17:00,0.0398,0.0339,0.0366,
新宿 (Shinjuku),2017-04-19,15:01～16:00,0.0389,0.0338,0.0362,
新宿 (Shinjuku),2017-04-19,14:01～15:00,0.0401,0.0333,0.0366,
新宿 (Shinjuku),2017-04-19,13:01～14:00,0.0407,0.0341,0.0367,
新宿 (Shinjuku),2017-04-19,12:01～13:00,0.0396,0.0349,0.0366,
新宿 (Shinjuku),2017-04-19,11:01～12:00,0.0402,0.0351,0.0368,
新宿 (Shinjuku),2017-04-19,10:01～11:00,0.0400,0.0347,0.0368,
新宿 (Shinjuku),2017-04-19,09:01～10:00,0.0406,0.0345,0.0369,
新宿 (Shinjuku),2017-04-19,08:01～09:00,0.0400,0.0348,0.0368,
新宿 (Shinjuku),2017-04-19,07:01～08:00,0.0401,0.0349,0.0368,
新宿 (Shinjuku),2017-04-19,06:01～07:00,0.0392,0.0343,0.0365,
新宿 (Shinjuku),2017-04-19,05:01～06:00,0.0398,0.0344,0.0364,
新宿 (Shinjuku),2017-04-19,04:01～05:00,0.0389,0.0344,0.0364,
新宿 (Shinjuku),2017-04-19,03:01～04:00,0.0403,0.0339,0.0364,
新宿 (Shinjuku),2017-04-19,02:01～03:00,0.0398,0.0343,0.0364,
新宿 (Shinjuku),2017-04-19,01:01～02:00,0.0408,0.0343,0.0366,
新宿 (Shinjuku),2017-04-19,00:01～01:00,0.0393,0.0346,0.0365,
新宿 (Shinjuku),2017-04-18,23:01～24:00,0.0384,0.0332,0.0362,
新宿 (Shinjuku),2017-04-18,22:01～23:00,0.0401,0.0344,0.0364,
新宿 (Shinjuku),2017-04-18,21:01～22:00,0.0383,0.0340,0.0362,
新宿 (Shinjuku),2017-04-18,20:01～21:00,0.0387,0.0344,0.0362,
新宿 (Shinjuku),2017-04-18,19:01～20:00,0.0394,0.0343,0.0368,
新宿 (Shinjuku),2017-04-18,18:01～19:00,0.0409,0.0343,0.0363,
新宿 (Shinjuku),2017-04-18,17:01～18:00,0.0391,0.0335,0.0362,
新宿 (Shinjuku),2017-04-18,16:01～17:00,0.0385,0.0341,0.0363,
新宿 (Shinjuku),2017-04-18,15:01～16:00,0.0392,0.0344,0.0366,
新宿 (Shinjuku),2017-04-18,14:01～15:00,0.0386,0.0343,0.0363,
新宿 (Shinjuku),2017-04-18,13:01～14:00,0.0394,0.0342,0.0364,
新宿 (Shinjuku),2017-04-18,12:01～13:00,0.0392,0.0343,0.0365,
新宿 (Shinjuku),2017-04-18,11:01～12:00,0.0397,0.0348,0.0369,
新宿 (Shinjuku),2017-04-18,10:01～11:00,0.0402,0.0354,0.0370,
新宿 (Shinjuku),2017-04-18,09:01～10:00,0.0393,0.0347,0.0369,
新宿 (Shinjuku),2017-04-18,08:01～09:00,0.0444,0.0364,0.0385,
新宿 (Shinjuku),2017-04-18,07:01～08:00,0.0513,0.0387,0.0434,
新宿 (Shinjuku),2017-04-18,06:01～07:00,0.0546,0.0440,0.0483,
新宿 (Shinjuku),2017-04-18,05:01～06:00,0.0477,0.0362,0.0414,
新宿 (Shinjuku),2017-04-18,04:01～05:00,0.0421,0.0355,0.0385,
新宿 (Shinjuku),2017-04-18,03:01～04:00,0.0445,0.0366,0.0406,
新宿 (Shinjuku),2017-04-18,02:01～03:00,0.0469,0.0392,0.0425,
新宿 (Shinjuku),2017-04-18,01:01～02:00,0.0462,0.0401,0.0430,
新宿 (Shinjuku),2017-04-18,00:01～01:00,0.0477,0.0398,0.0432,
新宿 (Shinjuku),2017-04-17,23:01～24:00,0.0467,0.0404,0.0440,
新宿 (Shinjuku),2017-04-17,22:01～23:00,0.0437,0.0362,0.0406,
新宿 (Shinjuku),2017-04-17,21:01～22:00,0.0441,0.0361,0.0390,
新宿 (Shinjuku),2017-04-17,20:01～21:00,0.0428,0.0357,0.0386,
新宿 (Shinjuku),2017-04-17,19:01～20:00,0.0439,0.0371,0.0405,
新宿 (Shinjuku),2017-04-17,18:01～19:00,0.0455,0.0379,0.0415,
新宿 (Shinjuku),2017-04-17,17:01～18:00,0.0427,0.0366,0.0395,
新宿 (Shinjuku),2017-04-17,16:01～17:00,0.0422,0.0353,0.0373,
新宿 (Shinjuku),2017-04-17,15:01～16:00,0.0396,0.0349,0.0369,
新宿 (Shinjuku),2017-04-17,14:01～15:00,0.0399,0.0343,0.0365,
新宿 (Shinjuku),2017-04-17,13:01～14:00,0.0387,0.0341,0.0364,
新宿 (Shinjuku),2017-04-17,12:01～13:00,0.0412,0.0345,0.0366,
新宿 (Shinjuku),2017-04-17,11:01～12:00,0.0408,0.0344,0.0368,
新宿 (Shinjuku),2017-04-17,10:01～11:00,0.0408,0.0343,0.0369,
新宿 (Shinjuku),2017-04-17,09:01～10:00,0.0399,0.0346,0.0371,
新宿 (Shinjuku),2017-04-17,08:01～09:00,0.0412,0.0353,0.0376,
新宿 (Shinjuku),2017-04-17,07:01～08:00,0.0402,0.0356,0.0373,
新宿 (Shinjuku),2017-04-17,06:01～07:00,0.0414,0.0354,0.0375,
新宿 (Shinjuku),2017-04-17,05:01～06:00,0.0409,0.0351,0.0370,
新宿 (Shinjuku),2017-04-17,04:01～05:00,0.0418,0.0356,0.0374,
新宿 (Shinjuku),2017-04-17,03:01～04:00,0.0410,0.0357,0.0375,
新宿 (Shinjuku),2017-04-17,02:01～03:00,0.0398,0.0344,0.0371,
新宿 (Shinjuku),2017-04-17,01:01～02:00,0.0405,0.0351,0.0368,
新宿 (Shinjuku),2017-04-17,00:01～01:00,0.0400,0.0347,0.0370,
